Find Starlink 5082

NORAD ID: 54845 Int'l Des: 2022-177 Owner: SPXS Country: US Constellation: starlink operational
LEOCIRCULAR

当前视图

正在加载3D地球...

About Starlink 5082

Starlink 5082 (NORAD 54845) is a starlink constellation satellite (v1.5) launched Dec 28, 2022 by SPXS of US. It operates in LEO, CIRCULAR orbit with a mass of 305.00 kg.

即将过境

Passes for default location (London). Set your location on the main map for personalized predictions.

高度历史

Loading altitude history...

两行轨道根数

1 54845U 22177AB 26206.33541004 .00001452 00000-0 62278-4 0 9992
2 54845 43.0024 75.3682 0000666 276.1168 83.9608 15.27574753198010
Epoch: Jul 25, 2026 • Age: 16 hours

当前状态

高度 485.7 km
远地点 / 近地点 N/A
速度 7.63 km/s
星下点 38.62°N, 114.19°W
发射日期 Dec 28, 2022
运行时间 3.5 years
类型 internet

技术详情

分类 Payload
质量 305.00 kg
干质量 290.00 kg
总质量 305.00 kg
长度 0.20 m
直径 2.80 m
跨度 9.00 m
形状 Box + pan
制造商 SPXS
平台类型 Starlink
阶段状态 In Orbit
所有者/国家 SPXS/US

Most Searched